When you browse on this site, cookies collect data to enhance your experience and personalize the content and advertising you see.
Visit our Privacy Policy to learn more. By continuing to use the site, you agree to this use of cookies and data.
  • In Österreich
  • Länderverzeichnis
  • Für 7 Tage
  • Wassertemperatur
  • Satellitenkarten
  • Wetterkarte
  • News
  • Widgets
  • user-avatar
    Anmelden

    Stündliche Wetter Lobcha

    Heute, 19 Juli, Freitag

    Zeit Temperatur Niederschläge Wind Luftdruck Luftfeuchtigkeit
    00:00 +13°C° 0 mm 3 m/S 747 mmHg 95%
    01:00 +13°C° 0 mm 3 m/S 747 mmHg 95%
    02:00 +12°C° 0 mm 3 m/S 747 mmHg 96%
    03:00 +12°C° 0 mm 3 m/S 747 mmHg 96%
    04:00 +12°C° 0 mm 3 m/S 748 mmHg 96%
    05:00 +13°C° 0 mm 2 m/S 748 mmHg 96%
    06:00 +15°C° 0 mm 2 m/S 748 mmHg 92%
    07:00 +16°C° 0 mm 3 m/S 748 mmHg 87%
    08:00 +18°C° 0 mm 3 m/S 749 mmHg 83%
    09:00 +19°C° 0 mm 3 m/S 749 mmHg 76%
    10:00 +21°C° 0 mm 3 m/S 749 mmHg 70%
    11:00 +22°C° 0 mm 4 m/S 749 mmHg 63%
    12:00 +22°C° 0.1 mm 4 m/S 749 mmHg 62%
    13:00 +23°C° 0.1 mm 4 m/S 749 mmHg 61%
    14:00 +23°C° 0.1 mm 4 m/S 749 mmHg 60%
    15:00 +23°C° 0.4 mm 4 m/S 749 mmHg 65%
    16:00 +22°C° 0.4 mm 3 m/S 749 mmHg 70%
    17:00 +22°C° 0.4 mm 3 m/S 749 mmHg 74%
    18:00 +20°C° 0.1 mm 3 m/S 749 mmHg 78%
    19:00 +19°C° 0.1 mm 2 m/S 749 mmHg 82%
    20:00 +18°C° 0.1 mm 2 m/S 749 mmHg 85%
    21:00 +17°C° 0 mm 2 m/S 750 mmHg 86%
    22:00 +16°C° 0 mm 1 m/S 750 mmHg 86%
    23:00 +15°C° 0 mm 1 m/S 750 mmHg 87%

    Morgen, 20 Juli, Samstag

    Zeit Temperatur Niederschläge Wind Luftdruck Luftfeuchtigkeit
    00:00 +15°C° 0 mm 1 m/S 750 mmHg 88%
    01:00 +14°C° 0 mm 1 m/S 750 mmHg 88%
    02:00 +14°C° 0 mm 1 m/S 750 mmHg 89%
    03:00 +14°C° 0 mm 1 m/S 751 mmHg 89%
    04:00 +14°C° 0 mm 1 m/S 751 mmHg 89%
    05:00 +14°C° 0 mm 1 m/S 751 mmHg 89%
    06:00 +16°C° 0 mm 1 m/S 751 mmHg 85%
    07:00 +18°C° 0 mm 1 m/S 751 mmHg 80%
    08:00 +20°C° 0 mm 1 m/S 752 mmHg 76%
    09:00 +22°C° 0 mm 1 m/S 752 mmHg 69%
    10:00 +23°C° 0 mm 1 m/S 752 mmHg 62%
    11:00 +25°C° 0 mm 1 m/S 752 mmHg 56%
    12:00 +25°C° 0 mm 1 m/S 752 mmHg 54%
    13:00 +25°C° 0 mm 1 m/S 752 mmHg 53%
    14:00 +25°C° 0 mm 1 m/S 752 mmHg 51%
    15:00 +25°C° 0 mm 1 m/S 752 mmHg 52%
    16:00 +26°C° 0 mm 1 m/S 752 mmHg 53%
    17:00 +26°C° 0 mm 1 m/S 752 mmHg 54%
    18:00 +24°C° 0 mm 1 m/S 752 mmHg 59%
    19:00 +22°C° 0 mm 1 m/S 752 mmHg 64%
    20:00 +18°C° 0 mm 0 m/S 752 mmHg 69%
    21:00 +20°C° 0 mm 1 m/S 752 mmHg 70%
    22:00 +19°C° 0 mm 1 m/S 753 mmHg 71%
    23:00 +18°C° 0 mm 1 m/S 753 mmHg 72%

    übermorgen, 21 Juli, Sonntag

    Zeit Temperatur Niederschläge Wind Luftdruck Luftfeuchtigkeit
    00:00 +18°C° 0 mm 1 m/S 753 mmHg 74%
    01:00 +16°C° 0 mm 1 m/S 753 mmHg 76%
    02:00 +16°C° 0 mm 1 m/S 753 mmHg 78%
    03:00 +16°C° 0 mm 1 m/S 753 mmHg 79%
    04:00 +15°C° 0 mm 1 m/S 753 mmHg 81%
    05:00 +15°C° 0 mm 1 m/S 753 mmHg 83%
    06:00 +18°C° 0 mm 1 m/S 753 mmHg 79%
    07:00 +19°C° 0 mm 2 m/S 753 mmHg 76%
    08:00 +21°C° 0 mm 2 m/S 753 mmHg 72%
    09:00 +23°C° 0 mm 2 m/S 753 mmHg 67%
    10:00 +25°C° 0 mm 2 m/S 753 mmHg 62%
    11:00 +26°C° 0 mm 2 m/S 753 mmHg 58%
    12:00 +27°C° 0 mm 2 m/S 752 mmHg 56%
    13:00 +27°C° 0 mm 3 m/S 752 mmHg 54%
    14:00 +28°C° 0 mm 3 m/S 751 mmHg 53%
    15:00 +28°C° 0 mm 3 m/S 751 mmHg 56%
    16:00 +28°C° 0 mm 3 m/S 751 mmHg 59%
    17:00 +28°C° 0 mm 2 m/S 751 mmHg 62%
    18:00 +26°C° 0.5 mm 2 m/S 750 mmHg 69%
    19:00 +24°C° 0.5 mm 3 m/S 750 mmHg 77%
    20:00 +22°C° 0.5 mm 3 m/S 750 mmHg 84%
    21:00 +21°C° 1.9 mm 3 m/S 750 mmHg 88%
    22:00 +20°C° 1.9 mm 2 m/S 750 mmHg 91%
    23:00 +20°C° 1.9 mm 2 m/S 750 mmHg 95%

    22 Juli, Montag

    Zeit Temperatur Niederschläge Wind Luftdruck Luftfeuchtigkeit
    00:00 +19°C° 0.3 mm 3 m/S 750 mmHg 95%
    01:00 +19°C° 0.3 mm 3 m/S 749 mmHg 95%
    02:00 +18°C° 0.3 mm 4 m/S 749 mmHg 96%
    03:00 +18°C° 0 mm 3 m/S 749 mmHg 96%
    04:00 +17°C° 0 mm 3 m/S 749 mmHg 96%
    05:00 +16°C° 0 mm 3 m/S 750 mmHg 96%
    06:00 +17°C° 0 mm 3 m/S 750 mmHg 94%
    07:00 +18°C° 0 mm 3 m/S 750 mmHg 92%
    08:00 +20°C° 0 mm 3 m/S 750 mmHg 89%
    09:00 +21°C° 0 mm 3 m/S 750 mmHg 82%
    10:00 +23°C° 0 mm 4 m/S 751 mmHg 74%
    11:00 +25°C° 0 mm 4 m/S 751 mmHg 67%
    12:00 +26°C° 0 mm 5 m/S 751 mmHg 65%
    13:00 +26°C° 0 mm 5 m/S 751 mmHg 64%
    14:00 +26°C° 0 mm 5 m/S 750 mmHg 63%
    15:00 +26°C° 0.4 mm 5 m/S 750 mmHg 67%
    16:00 +25°C° 0.4 mm 4 m/S 750 mmHg 71%
    17:00 +25°C° 0.4 mm 4 m/S 750 mmHg 76%
    18:00 +24°C° 0.3 mm 3 m/S 750 mmHg 80%
    19:00 +21°C° 0.3 mm 3 m/S 750 mmHg 84%
    20:00 +20°C° 0.3 mm 3 m/S 750 mmHg 89%
    21:00 +19°C° 0 mm 3 m/S 750 mmHg 91%
    22:00 +19°C° 0 mm 3 m/S 750 mmHg 93%
    23:00 +18°C° 0 mm 3 m/S 750 mmHg 95%

    23 Juli, Dienstag

    Zeit Temperatur Niederschläge Wind Luftdruck Luftfeuchtigkeit
    00:00 +17°C° 0 mm 3 m/S 750 mmHg 95%
    01:00 +17°C° 0 mm 3 m/S 750 mmHg 95%
    02:00 +17°C° 0 mm 4 m/S 750 mmHg 95%
    03:00 +15°C° 0 mm 4 m/S 750 mmHg 96%
    04:00 +14°C° 0 mm 4 m/S 750 mmHg 96%
    05:00 +14°C° 0 mm 4 m/S 750 mmHg 96%
    06:00 +15°C° 0 mm 4 m/S 750 mmHg 94%
    07:00 +17°C° 0 mm 4 m/S 750 mmHg 91%
    08:00 +17°C° 0 mm 4 m/S 750 mmHg 88%
    09:00 +19°C° 0 mm 4 m/S 750 mmHg 81%
    10:00 +21°C° 0 mm 5 m/S 751 mmHg 74%
    11:00 +22°C° 0 mm 5 m/S 751 mmHg 68%
    12:00 +23°C° 0.3 mm 5 m/S 750 mmHg 67%
    13:00 +23°C° 0.3 mm 5 m/S 750 mmHg 67%
    14:00 +25°C° 0.3 mm 5 m/S 750 mmHg 66%
    15:00 +23°C° 0.1 mm 5 m/S 750 mmHg 67%
    16:00 +23°C° 0.1 mm 5 m/S 750 mmHg 68%
    17:00 +23°C° 0.1 mm 5 m/S 750 mmHg 69%
    18:00 +22°C° 0.2 mm 4 m/S 750 mmHg 75%
    19:00 +20°C° 0.2 mm 4 m/S 750 mmHg 81%
    20:00 +19°C° 0.2 mm 3 m/S 750 mmHg 87%
    21:00 +18°C° 0 mm 3 m/S 750 mmHg 89%
    22:00 +18°C° 0 mm 2 m/S 750 mmHg 92%
    23:00 +17°C° 0 mm 2 m/S 750 mmHg 94%

    24 Juli, Mittwoch

    Zeit Temperatur Niederschläge Wind Luftdruck Luftfeuchtigkeit
    00:00 +16°C° 0 mm 2 m/S 750 mmHg 94%
    01:00 +16°C° 0 mm 2 m/S 750 mmHg 94%
    02:00 +16°C° 0 mm 1 m/S 750 mmHg 94%
    03:00 +16°C° 0 mm 2 m/S 750 mmHg 95%
    04:00 +15°C° 0 mm 2 m/S 749 mmHg 95%
    05:00 +15°C° 0 mm 2 m/S 749 mmHg 96%
    06:00 +17°C° 0 mm 2 m/S 749 mmHg 92%
    07:00 +18°C° 0 mm 2 m/S 750 mmHg 88%
    08:00 +19°C° 0 mm 3 m/S 750 mmHg 84%
    09:00 +20°C° 0.3 mm 3 m/S 750 mmHg 77%
    10:00 +22°C° 0.3 mm 3 m/S 749 mmHg 70%
    11:00 +23°C° 0.3 mm 4 m/S 749 mmHg 63%
    12:00 +23°C° 0 mm 4 m/S 749 mmHg 60%
    13:00 +25°C° 0 mm 5 m/S 749 mmHg 57%
    14:00 +25°C° 0 mm 5 m/S 749 mmHg 54%
    15:00 +25°C° 0 mm 5 m/S 749 mmHg 57%
    16:00 +23°C° 0 mm 5 m/S 749 mmHg 60%
    17:00 +23°C° 0 mm 4 m/S 749 mmHg 63%
    18:00 +21°C° 0 mm 4 m/S 749 mmHg 67%
    19:00 +20°C° 0 mm 3 m/S 749 mmHg 71%
    20:00 +18°C° 0 mm 2 m/S 748 mmHg 76%
    21:00 +17°C° 0 mm 2 m/S 748 mmHg 78%
    22:00 +17°C° 0 mm 2 m/S 748 mmHg 80%
    23:00 +16°C° 0 mm 1 m/S 748 mmHg 82%
    Mehr zeigen